Погода в Индиге

Погода в Индиге : погода сейчас, прогноз погоды и архив. Всё, что Вы хотите узнать о погоде в Индиге!

Поиск расширенной информации на нашем сайте:

Другие новости

Новости СМИ2

Главная страница сайта

Новости сайта

03.07.2017

Напоминаем, что на нашем специализированном сайте Метеоцентр.Азия вы можете получить высокодетализированные автоматические прогнозы погоды по пунктам России, СНГ и мира в авиационном формате (включающие направление и скорость ветра, видимость, явления погоды, количество и форму облачности, нижнюю и верхнюю границу облачности).


Погода в Индиге - сегодня

Время (UTC), дата Ветер
(°,м/с) 
Видим.   Явления Облачность Т
(°С)
Тd
(°С)
f(%) Тe
(°С)
Pmin
(гПа)
dP
(гПа)
Po
(мм)
O2
(г/м3)
Тmin Tmax R s Состояние
почвы
15 14.10.17 120 (ЮВ) 10 км    10/10 600 м 
[Sc]
+0.4 -0.5 94 -2  1016.5  -0.2  762  307    +1       
18 14.10.17 130 (ЮВ) 10 км    10/10 600 м 
[Sc]
+0.2 -0.7 94 -3  1016  -0.5  762  307           
21 14.10.17 110 (В) 4000 м  дымка  10/10 300 м 
[St]
-0.4 -1 96 -4  1015.2  -0.8  761  307           
00 15.10.17 130 (ЮВ) 4000 м  дымка  10/10 300 м 
[St]
-0.5 -0.8 98 -4  1014.1  -1.1  760  307           
03 15.10.17 130 (ЮВ) 8-10{11}  4000 м  дымка  10/10 300 м 
[St]
-0.9 -1.2 98 -5  1013.6  -0.5  760  307  -0.9        влажная 
06 15.10.17 130 (ЮВ) 7-10{11}  4000 м  дымка  10/10 300 м 
[St]
-0.5 -0.5 100 -4  1013.6  760  307  -1         
09 15.10.17 130 (ЮВ) 7{10}  4000 м  дымка  10/10 300 м 
[St]
-0.1 -0.4 98 -4  1013.8  0.2  760  306           
12 15.10.17 140 (ЮВ) 8-10{11}  4000 м  дымка  10/10 300 м 
[St]
+0.3 +0 98 -4  1014.2  0.4  760  306           
15 15.10.17 110 (В) 7-10{11}  10 км    10/10 600 м 
[Sc]
+0.2 -0.4 96 -4  1014.6  0.4  761  306    +0.6       
18 15.10.17 120 (ЮВ) 9-11{11}  10 км    10/10 600 м 
[Sc]
-1.9 -2.5 96 -7  1014.5  -0.1  761  309           
21 15.10.17 120 (ЮВ) 9-12{12}  10 км    10/10 600 м 
[Sc]
-2.8 -3.1 98 -8  1014.6  0.1  761  310           
00 16.10.17 120 (ЮВ) 9-12{12}  4000 м  слаб. ливневой снег  10/10 300 м кучево-дожд. 
[Cb cap]
-1.6 -1.8 99 -7  1013.9  -0.7  760  308           
03 16.10.17 120 (ЮВ) 8-11{12}  4000 м  слаб. ливневой снег  10/10 300 м кучево-дожд. 
[Cb cap]
-2.5 -2.5 100 -7  1012.6  -1.3  759  309  -2.8    0.0    замёрзшая 
06 16.10.17 130 (ЮВ) 8-10{12}  4000 м  слаб. ливневой снег  10/10 300 м кучево-дожд. 
[Cb cap]
-1.7 -1.7 100 -6  1011.7  -0.9  758  308           
09 16.10.17 140 (ЮВ) 6{10}  4000 м  слаб. ливневой снег  10/10 300 м кучево-дожд. 
[Cb cap]
-0.3 -0.3 100 -4  1010.5  -1.2  758  306           
12 16.10.17 140 (ЮВ) 4000 м  слаб. ливневой снег  10/10 300 м кучево-дожд. 
[Cb cap]
+0.1 +0.1 100 -3  1008.8  -1.7  756  305           
15 16.10.17 140 (ЮВ) 4000 м  слаб. ливневой дождь со снегом  10/10 300 м кучево-дожд. 
[Cb cap]
+0.4 +0.4 100 -3  1006.8  -2  755  304    +0.4     
18 16.10.17 130 (ЮВ) 10 км  {ливн. осадки}  10/10 600 м кучево-дожд. 
[Cb cap]
+0.5 -0.1 96 -2  1003.8  -3  752  303           
21 16.10.17 120 (ЮВ) 10 км    10/10 600 м кучево-дожд. 
[Cb cap]
+1 +0.5 96 -2  1000.9  -2.9  750  301           
00 17.10.17 130 (ЮВ) 10 км    10/10 600 м 
[Sc]
+2.3 +1.5 94 997.9  -3  748  299           
03 17.10.17 140 (ЮВ) 10 км    10/10 600 м 
[Sc]
+2.7 +1.9 94 995.6  -2.3  746  297  +0.3    0.0    влажная 
06 17.10.17 140 (ЮВ) 8-10{10}  20000 м    9/8 600 м средняя 
[Sc|Ac trans]
+3 +2.2 94 -1  994.3  -1.3  745  297           
09 17.10.17 130 (ЮВ) 5{10}  20000 м    9/8 600 м средняя 
[Sc|Ac trans]
+4.1 +3.1 93 +2  993.2  -1.1  745  295           
12 17.10.17 100 (В) 20000 м    10/10 600 м 
[Sc]
+4.3 +3.1 92 +2  992.7  -0.5  744  295           
15 17.10.17 110 (В) 7{10}  10 км    10/10 600 м 
[Sc]
+3.9 +3.2 95 +1  991.9  -0.8  744  295    +4.4       
Время (UTC), дата Ветер
(°,м/с) 
Видим.   Явления Облачность Т
(°С)
Тd
(°С)
f(%) Тe
(°С)
Pmin
(гПа)
dP
(гПа)
Po
(мм)
O2
(г/м3)
Тmin Tmax R s Состояние
почвы

Для получения пояснительной информации подведите курсор к названию столбца.

ПОГОДА в Индиге - архив

Всё, что Вы хотите узнать о погоде в Индиге - удобно и подробно!

Выберите нужную дату (начиная с 1 января 2015* года) и нажмите кнопку "Найти".
Будут отображены архивные сводки погоды по пункту Индига, начиная с указанной даты.


Отображать данные в формате CSV (для использования в таблицах Excel)


Внимание! Наш архив погоды предназначен исключительно для личного некоммерческого использования в познавательных целях. Если Вам необходимы официальные справки о состоянии погоды (для производственных, юридических, коммерческих и т.п. целей), обращайтесь в органы Росгидромета.

*Примечание: данная дата относится к архиву по метеостанциям СССР (Россия, СНГ, Балтия).
Архив по метеостанциям Зарубежной Европы и Азии (кроме Китая) хранится 10 дней, по другим регионам земного шара (Китай, Африка, Америка, Австралия, Океания) - 1 день.

Индига - район местоположения метеостанции


Название, широта, долгота, высота метеостанции:
Индига 67.7°ш. 48.7°д. 4 м над ур. моря [Российская Федерация]

Дополнительная информация

В oтличие oт бoльшинства пoгoдных сайтoв мы публикуем пoдрoбную метеoинфoрмацию в детальнoм прoфессиoнальнoм фoрмате.

Характеристики температуры и влажнoсти вoздуха измеряются на высoте 2 м в тени вдали oт зданий и деревьев.
Скoрoсть ветра измеряется на высoте 10 м (на урoвне рoста челoвека скoрoсть ветра ниже в 1.5-2 раза). Если метеoстанция нахoдится в гoрoде или в лесу, тo скoрoсть ветра занижена на 2-4 м/с пo сравнению с oткрытым местoм. Скoрoсть ветра над акватoриями крупных рек и oзёр, а также на вершинах хoлмoв на 2-5 м/с выше, чем в oбычных услoвиях.
Атмoсфернoе давление в разных тoчках местнoсти мoжет значительнo oтличаться oт давления на метеoстанции, в зависимoсти oт услoвий рельефа (при пoдъёме на 10 м давление пoнижается примернo на 1 мм рт.ст.).